This is the latest recevied weather packets stored in our database for station/object KE5KUL-13. If no packets are shown the sender has not sent any weather packets the latest 10 day(s).
| Time | Temp. | Humidity | Pressure | Rain* | Wind** | Luminosity | Snow |
|---|---|---|---|---|---|---|---|
| 1777500017 | 22.78° C | 26% | 1016.6 hPa | 0 mm | - | - | - |
| 1777499417 | 22.22° C | 26% | 1016.9 hPa | 0 mm | - | - | - |
| 1777498817 | 22.78° C | 25% | 1016.9 hPa | 0 mm | - | - | - |
| 1777498219 | 22.78° C | 25% | 1017.1 hPa | 0 mm | - | - | - |
| 1777497619 | 22.22° C | 26% | 1017.2 hPa | 0 mm | - | - | - |
| 1777497017 | 22.22° C | 26% | 1017.2 hPa | 0 mm | - | - | - |
| 1777496417 | 22.22° C | 26% | 1017.6 hPa | 0 mm | - | - | - |
| 1777495819 | 22.22° C | 25% | 1017.6 hPa | 0 mm | - | - | - |
| 1777495217 | 22.78° C | 25% | 1017.8 hPa | 0 mm | - | - | - |
| 1777494617 | 22.22° C | 26% | 1018.1 hPa | 0 mm | - | - | - |
| 1777494017 | 22.22° C | 25% | 1018.3 hPa | 0 mm | - | - | - |
| 1777493419 | 22.78° C | 25% | 1018.7 hPa | 0 mm | - | - | - |
| 1777492819 | 22.22° C | 26% | 1018.6 hPa | 0 mm | - | - | - |
| 1777492217 | 21.67° C | 27% | 1018.6 hPa | 0 mm | - | - | - |
| 1777491617 | 21.67° C | 26% | 1018.7 hPa | 0 mm | - | - | - |
| 1777491019 | 21.67° C | 27% | 1018.8 hPa | 0 mm | - | - | - |
| 1777490419 | 22.22° C | 26% | 1018.9 hPa | 0 mm | - | - | - |
| 1777489819 | 21.67° C | 27% | 1018.9 hPa | 0 mm | - | - | - |
| 1777489219 | 21.67° C | 29% | 1019.3 hPa | 0 mm | - | - | - |
| 1777488619 | 20.56° C | 30% | 1019.1 hPa | 0 mm | - | - | - |
| 1777488018 | 20.56° C | 30% | 1019.2 hPa | 0 mm | - | - | - |
| 1777487419 | 21.11° C | 30% | 1019.3 hPa | 0 mm | - | - | - |
| 1777486819 | 20.56° C | 32% | 1019.7 hPa | 0 mm | - | - | - |
| 1777486219 | 20° C | 35% | 1019.8 hPa | 0 mm | - | - | - |
| 1777485618 | 19.44° C | 37% | 1019.7 hPa | 0 mm | - | - | - |
* Rain latest hour (hover to see other rain measurements)
** Current wind speed in m/s (hover to see current wind gust speed)